www.pogodaiklimat.ru

Погода и климат >> Архив погоды >> Россия >> Волгоградская область >> Волгоград город


ПОГОДА в Волгограде город

  • Прогноз погоды в Волгограде город
  • Монитор погоды в Волгограде город
  • Климат города

АРХИВ ПОГОДЫ в Волгограде город

Время (UTC), дата Ветер
(напр.,м/с)
 
Видим.   Явления Облачность Т
(С)
Тd
(С)
f
(%)
Тe
(С)
Тes
(С)
Комфортность P
(гПа)
Po
(гПа)
Тmin
(С)
Tmax
(С)
R
(мм)
R24
(мм)
S
(см)
21 12.10 ЮЗ 3 4000 м слабая морось {ливн. осадки} 10/10 300 м
[St]
+9.4 +7.8 90 +7 +7 1016.3 1002.3
00 13.10 В 1 10 км слабая морось 10/10 600 м
[]
+8.9 +7.2 89 +8 +8 1016.1 1002.0
03 13.10 ЮЗ 1 4000 м дымка 9/9 600 м
[Sc diur, vesp]
+8.5 +7.1 91 +8 +8 1016.2 1002.1 +8.1 1
06 13.10 Ю 1 4000 м дымка 10/8 300 м
[St Ac und]
+10.5 +8.0 84 +10 +10 1016.8 1002.8
09 13.10 ЮЗ 1 10 км в посл. час ливневой дождь 10/5 600 м
[Sc Ac und]
+12.2 +7.5 73 +12 +13 1016.1 1002.2
12 13.10 Ю 2 10 км 10/5 600 м
[Sc Ac und]
+15.1 +9.4 69 +15 +15 1014.6 1000.9
15 13.10 ЮЗ 1 2000 м слабый дождь 10/6 300 м
[St Ac und]
+13.7 +11.4 86 +14 +14 1014.1 1000.3 +15.6 1
18 13.10 ЮЗ 2 10 км слабый дождь 10/10 200 м
[Frnb Ns]
+13.0 +11.3 89 +12 +12 1013.5 999.7
21 13.10 ЮЗ 3 10 км слабый дождь 10/10 300 м
[Frnb Ns]
+12.9 +10.3 84 +12 +12 1012.8 999.0
00 14.10 Ю 1 10 км {дождь} 4/0
[Ac trans]
+12.0 +9.3 84 +12 +12 1011.5 997.7
03 14.10 Ю 2 10 км 10/10 300 м
[Sc]
+11.7 +9.0 83 +11 +11 1011.0 997.2 +11.5 2
06 14.10 Ю 2 10 км 10/10 300 м
[Sc diur, vesp]
+12.4 +8.9 79 +12 +12 1010.5 996.7
09 14.10 СЗ 2 10 км в посл. час ливневой дождь 10/10 300 м
[Cb cap]
+11.0 +8.0 82 +10 +10 1010.6 996.7
12 14.10 ЮЗ 2 10 км {ливн. осадки} 8/6 300 м
[Sc diur, vesp Ac lent]
+11.8 +7.4 74 +11 +11 1010.3 996.5
15 14.10 ЮЗ 1 10 км ясно +10.8 +6.2 73 +11 +11 1010.9 997.0 +12.6 0.3
18 14.10 ЮЗ 2 10 км ясно +8.8 +5.1 78 +7 +7 1011.6 997.6
21 14.10 ЮЗ 2 10 км 3/0
[Ac cast]
+7.6 +4.7 82 +6 +6 1011.1 997.1
00 15.10 ЮЗ 3 10 км ясно +7.5 +5.1 85 +5 +5 1010.4 996.4
03 15.10 ЮЗ 2 4000 м дымка ясно +6.1 +4.7 91 +4 +4 1010.8 996.7 +6.1
06 15.10 ЮЗ 2 10 км 5/0
[Ac lent Ci fib]
+9.7 +6.4 80 +8 +10 1010.1 996.2
09 15.10 ЮЗ 2 10 км 10/8 300 м
[Sc Ac und]
+10.2 +5.8 74 +9 +9 1009.4 995.5
12 15.10 В 1 10 км 10/10 300 м
[Sc]
+9.2 +4.6 73 +9 +9 1008.3 994.4
15 15.10 ЮЗ 2
{10}
10 км 10/10 300 м
[Cb cap]
+7.6 +1.9 67 +6 +6 1006.6 992.6 +10.7
18 15.10 Ю 2 4000 м слабый ливневой дождь 10/10 300 м
[Cb cap]
+5.9 +3.7 86 +3 +3 1002.8 988.8
21 15.10 ЮЗ 3 10 км в посл. час ливневой дождь 10/10 200 м
[St]
+7.5 +6.1 91 +5 +5 997.9 984.1
00 16.10 СЗ 5 10 км {ливн. осадки} 9/9 300 м
[St]
+7.8 +5.8 87 +4 +4 996.7 982.8
03 16.10 СЗ 4
{10}
10 км {морось} 10/10 300 м
[Cb cap]
+7.0 +4.5 84 +3 +3 998.1 984.2 +5.5 6
06 16.10 С 5-12
{14}
4000 м слабая морось {ливн. осадки} 10/10 200 м
[St]
+4.2 +2.2 87 -1 -1 1001.7 987.6 +4.1
09 16.10 СЗ 4
{16}
10 км {морось} 10/8 300 м
[Cb cap Ac und]
+6.8 +2.2 72 +3 +4 1004.5 990.5
12 16.10 СЗ 5-10
{13}
10 км слабый ливневой дождь {морось} 10/5 600 м
[Cb cap Ac und]
+7.9 +3.4 73 +4 +5 1006.0 992.0
15 16.10 СЗ 5-11
{13}
10 км слабый ливневой дождь 10/8 300 м
[Cb cap Ac und]
+6.1 +3.7 85 +2 +2 1008.2 994.1 +8.7 2
18 16.10 СЗ 5
{13}
10 км {ливн. осадки} 10/8 300 м
[Sc Ac und]
+5.8 +2.8 81 +1 +1 1008.7 994.6
21 16.10 СЗ 5
{11}
10 км 10/10 300 м
[Sc]
+6.1 +2.9 80 +2 +2 1009.5 995.4
00 17.10 СЗ 5-11
{11}
10 км 3/0
[Ac As]
+5.8 +2.4 79 +1 +1 1010.2 996.1
03 17.10 СЗ 5-10
{11}
10 км 3/3 300 м
[Sc]
+5.2 +2.1 80 +1 +1 1011.3 997.1 +5.2
06 17.10 СЗ 5-10
{12}
10 км 9/9 300 м
[Sc diur, vesp]
+6.7 +2.4 74 +3 +3 1013.2 999.1 +4.9
09 17.10 СЗ 4
{12}
10 км 9/9 600 м
[Sc diur, vesp]
+9.2 +1.7 59 +7 +7 1013.3 999.3
12 17.10 СЗ 4
{10}
10 км 9/9 600 м
[Sc diur, vesp]
+8.9 +1.0 58 +6 +6 1013.5 999.5
15 17.10 СЗ 3 10 км 9/5 600 м
[Sc diur, vesp Ac lent]
+9.0 +2.6 64 +7 +7 1013.9 999.9 +9.9
18 17.10 СЗ 2 10 км 9/0
[Ac cast]
+9.5 +3.1 64 +8 +8 1014.0 1000.0
21 17.10 СЗ 5-11
{11}
10 км 10/10 600 м
[Sc]
+10.0 +6.3 78 +7 +7 1014.6 1000.6
03 18.10 СЗ 3
{10}
10 км 10/0
[Ac lent Cs]
+5.9 +3.0 82 +3 +3 1019.6 1005.3 +6.1
06 18.10 СЗ 2 10 км 10/0
[Cs]
+8.6 +5.2 79 +7 +8 1021.2 1007.1 +5.2
09 18.10 Ю 1 10 км 10/8 300 м
[Sc As op]
+9.6 +6.2 79 +9 +9 1021.2 1007.1
12 18.10 В 1 10 км 10/0
[Cs]
+11.9 +6.1 68 +12 +14 1019.7 1005.7
15 18.10 ЮЗ 4 10 км 10/0
[As op Cs]
+9.4 +7.3 87 +6 +6 1019.1 1005.0 +12.1
18 18.10 ЮЗ 3
{10}
10 км 8/0
[Ac As Ci fib]
+10.5 +7.9 84 +8 +8 1018.3 1004.3
21 18.10 ЮЗ 2
{11}
10 км 6/0
[Ac trans]
+10.1 +6.9 81 +9 +9 1017.3 1003.3
00 19.10 В 2
{11}
10 км ясно +9.7 +6.6 81 +8 +8 1016.5 1002.5
03 19.10 ЮВ 2 10 км 4/0
[Ac trans]
+9.0 +6.4 84 +7 +7 1016.3 1002.2 +8.9
06 19.10 Ю 2 4000 м дымка 8/0
[Cs]
+11.4 +7.6 77 +10 +12 1016.5 1002.6 +8.9
09 19.10 ЮЗ 4
{10}
10 км 4/0
[Ci fib]
+15.0 +8.8 66 +14 +17 1016.2 1002.4
12 19.10 ЮЗ 3
{11}
10 км 8/0
[Ci]
+16.9 +9.7 63 +17 +18 1015.1 1001.5
15 19.10 ЮЗ 3 10 км 4/0
[Ac As Ci fib]
+14.5 +10.0 74 +14 +14 1015.4 1001.6 +17.3

 

Местоположение метеостанции Волгоград город (Волгоградская область, Россия): широта 48.67 долгота 44.45 высота над уровнем моря 116 м.

В архиве по умолчанию представлена погода в Волгограде город за последнюю неделю. Архивные данные за месяц целиком и за предыдущие месяцы, начиная с января 2011 года, Вы можете получить, выбрав интересующий диапазон дат из раскрывающегося списка и нажав кнопку "Ввод!".

Внимание! Время в таблицах - всемирное. Для получения местного времени необходимо прибавить поправку, которая в Волгограде город равна 3 ч.

Смотрите также архив погоды в соседних городах и на ближайших метеорологических станциях:

Погода в Волгограде (Волгоградская область, Россия) (14 км)
Погода в Калаче-на-Дону (Волгоградская область, Россия) (71 км)
Погода в Иловле (Волгоградская область, Россия) (77 км)
Погода в Малых Дербетах (Калмыкия, Россия) (84 км)
Погода в Нижнем Чире (Волгоградская область, Россия) (105 км)
Погода в Ольховке (Волгоградская область, Россия) (134 км)
Погода в Фролове (Волгоградская область, Россия) (138 км)
Погода в Черный Яр (Астраханская область, Россия) (140 км)
Погода в Кетченерах (Калмыкия, Россия) (150 км)
Погода в Котельниково (Волгоградская область, Россия) (151 км)

Пояснения к столбцам:

Ветер - указаны скорость ветра в м/с - средняя за 10 мин, порывы в срок и между сроками (в фигурных скобках) и направление, откуда дует ветер: С - северный, СВ - северо-восточный, В - восточный, ЮВ - юго-восточный, Ю - южный, ЮЗ - юго-западный, З - западный, СЗ - северо-западный.
Видимость - горизонтальная дальность видимости в метрах или километрах. При видимости от 1 до 10 км при отсутствии осадков обычно наблюдается дымка, при ухудшении видимости до 1 км и менее - туман. В сухую погоду видимость может ухудшаться дымом, пылью или мглою.
Явления - указаны атмосферные явления, наблюдавшиеся в срок или в последний час перед сроком; фигурными скобками обозначены явления, наблюдавшиеся между сроками (за 1-3 часа до срока); квадратными скобками обозначены град или гололедные отложения с указанием их диаметра в мм.
Облачность - указаны через наклонную черту общая и нижняя облачность в баллах и высота нижней границы облаков в метрах; квадратными скобками обозначены формы облаков: Ci - перистые, Cs - перисто-слоистые, Cc - перисто-кучевые, Ac - высококучевые, As - высокослоистые, Sc - слоисто-кучевые, Ns - слоисто-дождевые, Cu - кучевые, Cb - кучево-дождевые. Подробнее классификацию облаков см. в Атласе облаков (PDF).
T - Температура воздуха - температура, измеренная на высоте 2 м над землей.
Td - Температура точки росы - температура, при понижении до которой содержащийся в воздухе водяной пар достигнет насыщения.
f - Относительная влажность воздуха - влажноcть воздуха, измеренная на высоте 2 м над землей.
Te - Эффективная температура - температура, которую ощущает одетый по сезону человек в тени. Характеристика душности погоды. При расчете учитывается влияние влажности воздуха и скорости ветра на теплоощущения человека.
Tes - Эффективная температура на солнце - температура, которую ощущает человек, с поправкой на солнечный нагрев. Характеристика знойности погоды. Зависит от высоты солнца над горизонтом, облачности и скорости ветра. Ночью, в пасмурную погоду, а также при ветре 12 м/с и более поправка равна нулю.
P - Атмосферное давление - приведенное к уровню моря атмосферное давление.
Po - Атмосферное давление - измеренное на уровне метеостанции атмосферное давление.
Tmin - Минимальная температура - минимум температуры воздуха на высоте 2 м над землей.
Tmax - Максимальная температура - максимум температуры воздуха на высоте 2 м над землей.
R - Количество осадков - Количество выпавших осадков за период времени, мм. При наведении курсора мыши на число - период времени, за который выпало указанное количество осадков.
R24 - Количество осадков - Количество выпавших осадков за 24 часа, мм.
S - Снежный покров - Высота снежного покрова, см. При наведении курсора мыши на число - состояние снежного покрова и степень покрытия местности в баллах.